FW2536 Weather Reports


Display with metric or nautical units.
time (UTC)temp
F
wind
direction
speed
MPH
gust
MPH
rain 1hr
in
rain 24hr
in
rain mn
in
humidity
%
barometer
mb
20260509223001 52 360 2.0 6.0 0.00 0.44 0.44 66 1009.7
20260509221559 53 213 2.0 5.0 0.00 0.44 0.44 66 1009.9
20260509220057 53 237 1.0 5.0 0.01 0.44 0.44 66 1010.2
20260509214555 53 233 2.0 5.0 0.01 0.44 0.44 66 1010.2
20260509213058 52 243 1.0 3.0 0.02 0.44 0.44 66 1010.4
20260509211558 52 360 1.0 3.0 0.02 0.44 0.44 66 1010.5
20260509210054 52 236 2.0 5.0 0.02 0.43 0.43 66 1010.4
20260509204549 52 360 2.0 4.0 0.02 0.43 0.43 66 1010.6
20260509203047 52 360 2.0 5.0 0.02 0.42 0.42 66 1010.5
20260509201544 52 360 1.0 7.0 0.03 0.42 0.42 66 1010.5
20260509200041 51 238 1.0 5.0 0.03 0.41 0.41 66 1010.9
20260509194539 51 220 1.0 9.0 0.04 0.41 0.41 66 1011.0
20260509193039 51 220 2.0 6.0 0.05 0.40 0.40 66 1011.3
20260509191536 51 242 2.0 5.0 0.05 0.39 0.39 66 1011.3
20260509190039 51 258 2.0 9.0 0.06 0.38 0.38 66 1011.4
20260509184535 51 217 4.0 11.0 0.06 0.37 0.37 66 1011.5
20260509183042 52 360 2.0 7.0 0.04 0.35 0.35 66 1011.4
20260509181543 52 219 3.0 5.0 0.04 0.34 0.34 66 1011.4
20260509180034 52 219 2.0 7.0 0.03 0.32 0.32 66 1011.4
20260509174535 52 215 2.0 8.0 0.05 0.35 0.31 66 1011.5
20260509173033 52 229 2.0 8.0 0.09 0.35 0.31 66 1011.5
20260509171529 51 229 1.0 9.0 0.09 0.34 0.30 66 1011.4
20260509170027 51 225 2.0 6.0 0.09 0.33 0.28 66 1011.4
20260509164526 51 360 1.0 4.0 0.06 0.35 0.26 66 1011.5
20260509163031 52 360 0.0 3.0 0.02 0.31 0.22 66 1011.6
20260509161520 52 360 0.0 2.0 0.02 0.30 0.21 66 1011.5
20260509154618 51 360 1.0 3.0 0.02 0.28 0.20 66 1011.8
20260509153013 51 360 0.0 0.0 0.03 0.28 0.20 66 1011.9
20260509151511 51 188 0.0 0.0 0.03 0.28 0.19 66 1012.1
20260509150014 51 188 0.0 0.0 0.03 0.27 0.18 66 1012.3
20260509144517 51 83 0.0 0.0 0.04 0.27 0.18 66 1012.4
20260509143006 50 84 0.0 0.0 0.04 0.26 0.17 66 1012.4
20260509141504 50 83 0.0 0.0 0.04 0.25 0.16 66 1012.4
20260509140003 50 84 0.0 0.0 0.05 0.24 0.15 66 1012.4
20260509134501 50 83 0.0 0.0 0.05 0.23 0.14 66 1012.2
20260509133110 50 83 0.0 0.0 0.04 0.22 0.13 66 1012.2
20260509131559 50 83 0.0 0.0 0.04 0.21 0.12 66 1012.2
20260509130058 50 83 0.0 0.0 0.02 0.19 0.10 66 1012.2
20260509124557 49 83 0.0 0.0 0.01 0.18 0.09 66 1012.1
20260509123058 50 83 0.0 0.0 0.01 0.18 0.09 66 1012.1
20260509121554 49 83 0.0 0.0 0.00 0.17 0.08 66 1012.1
20260509120055 49 83 0.0 0.0 0.00 0.17 0.08 66 1012.2
20260509114549 48 83 0.0 0.0 0.00 0.17 0.08 66 1012.3
20260509113048 48 85 0.0 0.0 0.00 0.17 0.08 66 1012.3
20260509111549 47 360 0.0 0.0 0.00 0.17 0.08 66 1012.5
20260509110042 47 360 0.0 3.0 0.00 0.17 0.08 65 1012.4
20260509104543 47 360 0.0 0.0 0.00 0.17 0.08 65 1012.5
20260509103038 47 360 0.0 0.0 0.00 0.17 0.08 65 1012.6
20260509101548 47 360 0.0 0.0 0.00 0.17 0.08 65 1012.9
20260509100035 47 360 0.0 0.0 0.00 0.17 0.08 65 1012.7
20260509094538 47 360 0.0 1.0 0.00 0.17 0.08 64 1012.5
20260509093045 47 360 0.0 0.0 0.00 0.17 0.08 64 1012.8
20260509091535 46 360 0.0 2.0 0.01 0.17 0.08 64 1012.6
20260509090028 46 360 0.0 1.0 0.01 0.17 0.08 64 1012.9
20260509084541 46 360 0.0 0.0 0.01 0.17 0.08 63 1013.4
20260509083026 46 360 0.0 0.0 0.02 0.17 0.08 63 1013.3
20260509081535 46 360 0.0 1.0 0.02 0.16 0.07 62 1013.3
20260509080036 46 360 0.0 1.0 0.02 0.16 0.07 62 1013.3
20260509074525 46 360 1.0 3.0 0.03 0.16 0.07 61 1013.1
20260509073023 47 360 1.0 2.0 0.03 0.15 0.06 61 1013.1
20260509071522 47 360 0.0 1.0 0.03 0.14 0.05 61 1013.4
20260509070021 47 360 0.0 0.0 0.03 0.14 0.05 60 1013.4
20260509064520 46 360 0.0 1.0 0.03 0.13 0.04 60 1013.6
20260509063020 46 360 0.0 0.0 0.03 0.12 0.03 59 1014.1
20260509061518 46 360 0.0 2.0 0.02 0.11 0.02 59 1014.3
20260509060016 46 360 0.0 0.0 0.01 0.16 0.01 59 1014.2
20260509054518 46 360 0.0 2.0 0.01 0.16 0.01 59 1013.5
20260509053020 46 360 1.0 3.0 0.00 0.15 0.00 59 1013.3
20260509051512 46 360 0.0 1.0 0.00 0.15 0.00 59 1013.6
20260509050014 46 360 1.0 3.0 0.00 0.28 0.00 59 1013.5
20260509044510 46 360 1.0 4.0 0.00 0.28 0.00 59 1013.6
20260509043010 46 360 0.0 0.0 0.00 0.28 0.00 59 1013.8
20260509041510 45 360 0.0 0.0 0.00 0.28 0.00 60 1014.0
20260509040003 45 360 0.0 0.0 0.00 0.31 0.28 60 1014.0
20260509034503 45 360 0.0 0.0 0.00 0.31 0.28 61 1014.1
20260509033003 45 360 0.0 0.0 0.00 0.31 0.28 61 1013.9
20260509031502 45 360 0.0 0.0 0.00 0.31 0.28 61 1013.9
20260509030002 45 360 0.0 0.0 0.00 0.31 0.28 61 1013.8
20260509024501 46 360 0.0 0.0 0.00 0.31 0.28 61 1013.7
20260509023107 47 239 0.0 0.0 0.00 0.31 0.28 60 1014.1
20260509021600 47 238 0.0 0.0 0.00 0.31 0.28 60 1014.0
20260509021502 47 239 0.0 0.0 0.00 0.31 0.28 60 1014.0
20260509020059 48 239 0.0 0.0 0.00 0.31 0.28 60 1013.9
20260509014559 48 239 0.0 0.0 0.00 0.31 0.28 61 1013.8
20260509013112 48 239 0.0 0.0 0.00 0.31 0.28 60 1013.7
20260509011558 48 239 0.0 0.0 0.00 0.31 0.28 60 1013.4
20260509010057 48 239 0.0 0.0 0.00 0.31 0.28 60 1013.4
20260509004611 49 239 0.0 0.0 0.00 0.31 0.28 59 1013.1
20260509003056 49 239 0.0 0.0 0.00 0.31 0.28 59 1012.8
20260509001555 49 239 0.0 0.0 0.00 0.31 0.28 59 1013.1
20260509000055 49 239 0.0 0.0 0.00 0.31 0.28 59 1013.0
20260508234554 49 239 0.0 3.0 0.00 0.31 0.28 57 1012.9
20260508233109 50 239 0.0 0.0 0.00 0.31 0.28 55 1012.4
20260508231556 50 236 0.0 3.0 0.00 0.31 0.28 53 1012.4
20260508230057 51 238 1.0 3.0 0.00 0.31 0.28 52 1012.6
20260508224607 51 360 1.0 3.0 0.00 0.31 0.28 53 1012.5